Location: Carson
(33.8314°N, 118.2820°W)
Time: 13:50:03
(UTC+00:00)

ASTRO E2 - Pass Details

Date: 23 November 2020
Orbit: 508 x 515 km, 31.4° (Epoch: 22 January)

Event Time Altitude Azimuth Distance (km) Brightness Sun altitude
Exits shadow 12:37:15 49° 161° (SSE) 657 3.3 -23.8°
Drops below altitude 10° 12:40:56 10° 95° (E) 1,720 6.4 -23.1°
Sets 12:43:13 0° 90° (E) 2,607 7.7 -22.6°
